Wind_Speed
18 19 20 20 20 21 20 19 19 18 18 19 20 21 22 23 23 24 25 25 26 26 27 27 28 29 30 31 32 33 33 34 35 36 36 36 36 36 36 37 38 39 39 40
19 20 20 19 19 20 19 19 19 19 19 20 21 21 21 23 24 24 25 25 24 25 26 26 27 28 28 29 31 32 32 33 34 34 34 34 34 35 35 35 36 37 37 38
20 20 20 19 20 21 21 21 21 20 20 21 21 21 22 22 23 24 24 23 24 25 25 26 26 27 27 28 28 29 30 31 32 32 33 33 33 34 34 34 34 35 36 36
20 20 20 19 20 21 21 21 21 21 21 21 21 21 22 22 23 23 23 23 24 25 25 24 25 26 26 26 26 27 28 28 29 30 30 31 32 32 32 32 33 33 34 34
20 20 20 19 20 21 21 21 21 21 21 21 21 21 22 22 22 22 23 23 24 24 24 24 24 25 25 25 26 26 26 27 28 28 29 29 30 30 30 31 31 32 32 32
20 21 21 20 20 21 22 21 20 20 20 20 20 20 20 21 22 22 22 22 23 23 24 24 24 25 25 25 25 25 25 25 26 27 27 27 27 27 28 29 30 31 30 30
21 22 20 19 20 20 20 19 20 20 20 20 20 20 21 22 22 22 23 22 22 23 24 24 24 24 24 24 24 24 25 25 25 26 25 25 25 25 26 26 27 28 28 28
21 21 20 20 20 20 20 20 20 20 20 21 21 22 22 23 23 23 23 23 23 23 23 23 24 24 23 24 24 24 24 24 24 24 24 24 24 25 25 25 25 26 26 27
20 20 20 20 20 20 20 20 20 21 21 21 22 22 22 23 23 23 23 23 23 23 23 23 23 23 23 23 23 23 23 24 23 23 22 22 23 24 23 24 24 25 25 25
20 19 19 19 19 20 20 20 20 21 21 21 21 21 21 22 22 22 22 22 22 23 23 23 23 23 22 23 23 22 22 21 21 21 21 22 22 22 22 23 23 23 23 23
19 18 19 19 19 19 19 19 19 20 20 20 20 20 21 21 21 22 22 21 22 22 23 23 23 22 22 22 21 21 20 21 20 20 21 20 21 21 20 20 20 20 19 19
19 19 19 19 19 18 18 18 18 18 18 18 18 19 19 19 20 20 21 21 21 21 22 22 21 21 20 20 19 19 19 18 18 18 18 18 18 18 18 18 18 18 18 18
19 19 20 19 19 18 18 17 17 17 17 17 17 18 18 18 19 20 20 20 20 20 20 20 19 19 17 17 16 16 16 16 16 16 16 16 16 15 15 15 15 15 15 15
19 19 19 19 18 17 17 17 17 17 17 17 17 17 17 17 18 18 18 19 19 19 19 18 18 17 16 15 14 14 14 14 15 15 15 14 14 14 13 13 13 13 13 13
19 19 18 18 17 18 17 17 17 17 17 17 17 17 16 16 17 17 17 17 18 18 18 17 17 16 16 15 14 14 13 14 14 15 15 14 14 13 13 12 12 12 12 12
18 18 18 17 17 18 18 17 17 17 17 17 16 16 16 16 16 16 16 17 16 16 16 16 16 15 14 14 14 14 13 13 14 14 14 13 13 13 12 11 10 10 10 9
17 17 17 17 17 17 16 16 16 15 15 15 15 15 14 14 14 14 15 15 15 14 14 15 15 14 13 14 14 14 14 14 14 14 14 14 13 12 11 10 9 9 8 8
16 16 16 15 14 14 14 14 14 14 14 14 14 13 13 12 13 13 14 14 14 14 15 15 14 13 13 13 13 14 14 14 14 13 13 12 11 10 9 8 8 7 6 6
15 14 14 13 13 13 12 12 12 13 13 13 12 12 12 12 13 13 13 13 13 14 14 14 13 13 13 13 13 14 14 13 13 13 12 11 10 9 8 8 7 6 5 5
13 13 12 11 11 11 11 11 12 12 12 12 12 12 12 12 12 12 13 13 14 14 14 14 13 12 12 12 12 12 13 13 12 11 10 9 8 7 6 6 6 6 5 5
11 11 10 10 10 11 10 10 11 11 12 12 12 12 12 12 12 13 13 13 13 14 13 13 12 12 11 11 11 12 12 11 10 9 8 8 7 6 6 5 5 6 6 6
9 10 10 10 10 10 10 10 11 11 11 11 12 12 12 13 13 14 13 13 13 13 13 12 12 12 11 11 11 11 11 10 9 8 8 7 7 7 6 5 5 6 6 6
9 9 9 10 10 10 11 11 11 11 11 12 12 13 13 13 14 13 13 13 13 13 13 12 12 12 12 11 11 11 11 10 9 8 8 8 7 7 7 6 6 6 6 6
10 10 10 10 10 10 11 11 11 11 11 12 12 13 13 14 14 14 13 13 13 13 12 12 12 12 12 12 12 11 11 9 9 8 8 8 7 7 6 6 6 5 5 5
11 11 11 10 10 10 10 11 11 12 12 13 13 14 14 15 14 14 14 13 13 12 12 12 12 12 12 12 11 10 10 9 9 8 8 7 6 6 5 5 5 5 5 5
11 11 11 11 11 11 11 11 12 12 13 14 14 14 15 15 14 14 13 13 12 12 11 11 11 11 11 10 10 9 9 8 8 7 6 6 6 5 5 5 4 5 5 5
11 11 11 11 12 12 12 12 13 13 13 14 15 15 15 15 14 13 13 12 12 12 11 11 11 11 10 10 9 8 8 7 7 6 6 6 6 6 5 5 5 5 5 5
Wind_Direction
276 276 277 278 277 276 277 278 279 279 277 275 276 276 275 276 277 279 280 281 282 281 279 279 281 280 278 276 274 274 273 272 273 273 273 273 272 272 272 271 271 271 271 271
275 276 276 276 275 276 276 278 279 279 278 277 277 276 277 278 280 282 283 285 285 285 283 282 283 283 282 280 278 275 275 275 274 274 274 274 274 273 273 272 272 271 271 272
274 275 275 275 275 276 277 278 279 281 281 278 278 280 282 282 283 284 286 286 287 289 288 285 285 286 285 284 281 278 278 278 276 276 276 276 275 274 273 273 273 273 272 272
276 274 274 279 277 276 278 278 279 280 280 278 279 281 283 285 286 287 288 288 290 291 291 288 289 289 287 286 285 283 280 280 278 278 277 276 276 275 274 273 274 273 273 272
275 276 278 280 279 278 278 279 278 278 279 277 278 282 284 285 287 289 291 292 293 293 292 292 292 292 290 287 286 286 285 282 280 278 278 277 276 275 274 274 275 275 275 273
277 280 284 285 282 281 281 281 280 280 281 279 280 281 283 285 286 288 292 293 294 293 293 293 293 293 292 290 289 288 287 285 283 281 280 278 277 276 276 275 275 274 274 273
278 279 283 285 283 283 283 286 283 282 282 281 281 281 284 286 288 290 292 293 295 295 295 295 295 294 292 291 290 289 289 288 286 283 280 278 277 278 279 278 276 274 272 271
278 278 281 282 283 283 284 284 284 283 284 283 282 283 285 286 288 290 293 293 295 296 298 298 297 295 292 291 290 290 292 290 289 284 281 280 279 280 282 279 277 276 273 271
280 281 279 280 282 284 285 284 285 284 285 285 285 285 286 287 288 290 293 294 294 296 298 300 300 297 293 292 292 291 294 293 289 287 283 283 283 283 282 280 279 277 274 273
281 281 278 278 282 285 287 287 287 287 287 287 287 287 286 286 287 290 292 292 294 297 298 299 300 300 297 293 293 292 293 293 290 287 285 285 284 283 283 282 280 278 275 271
279 278 276 277 283 286 288 288 289 290 290 291 290 288 287 287 288 290 291 292 295 298 299 299 300 300 300 297 294 293 292 293 293 290 287 286 285 284 284 283 280 280 279 275
276 276 277 277 281 285 288 288 289 290 291 292 292 290 287 288 289 290 292 295 297 300 302 302 301 300 301 300 298 296 295 294 294 293 291 291 290 288 287 285 282 280 280 277
276 276 278 278 280 284 286 288 290 293 295 295 294 292 291 291 292 293 294 295 297 300 303 304 304 304 303 302 303 303 299 295 295 297 297 297 297 296 294 289 284 284 284 278
274 276 278 279 279 281 284 286 290 293 295 295 295 294 293 294 295 296 297 297 297 300 302 303 305 304 303 304 306 308 306 301 299 300 300 299 301 301 299 294 289 286 285 280
274 277 278 277 278 279 282 286 289 292 293 295 295 294 293 294 295 297 298 299 299 299 301 303 305 304 303 304 307 309 309 306 301 300 299 298 299 299 298 295 290 287 285 281
274 276 277 277 279 282 284 287 290 291 293 294 295 294 294 294 296 298 300 300 301 302 303 305 306 304 303 303 303 307 309 309 307 304 302 301 299 298 296 292 288 286 284 282
274 274 276 277 279 281 282 285 288 289 293 295 295 295 295 295 296 297 300 301 302 302 303 306 307 305 304 303 303 305 307 307 307 308 305 303 301 299 293 287 286 285 283 284
274 274 276 278 278 278 279 282 286 289 292 295 297 297 295 295 296 298 302 303 303 303 303 305 306 304 303 303 303 303 306 306 305 305 305 304 301 298 294 288 286 286 284 285
271 273 275 275 275 275 276 278 283 288 290 294 297 298 297 297 299 300 302 302 301 302 304 305 305 302 300 300 302 305 307 309 308 309 309 307 304 299 294 286 278 273 273 279
270 271 271 270 271 274 275 276 282 287 291 294 296 298 298 300 303 303 302 302 301 302 304 306 305 303 302 302 304 309 312 311 311 312 311 311 309 307 302 292 278 269 268 274
270 267 266 267 271 273 273 274 280 286 291 294 295 296 296 301 304 304 303 303 304 305 306 306 306 305 305 305 306 310 313 313 312 311 309 308 306 303 301 294 281 271 271 274
269 266 264 265 270 272 273 274 278 283 289 293 296 297 298 301 304 305 305 305 306 307 306 306 306 306 307 308 308 311 313 313 310 307 306 306 303 298 294 292 288 281 276 275
265 265 265 268 273 273 273 274 276 282 290 295 296 297 299 302 305 305 305 305 306 306 305 306 306 306 307 308 309 311 311 311 309 305 303 303 301 297 293 290 289 284 277 275
261 262 266 272 278 279 277 275 277 282 288 293 295 296 299 302 304 305 303 304 305 304 303 304 304 305 305 305 305 306 306 305 304 301 300 299 297 295 292 289 287 286 282 282
261 263 265 270 275 278 278 277 279 284 289 293 295 296 298 300 301 302 301 303 305 303 301 302 303 304 305 306 305 303 301 299 299 298 296 295 296 297 294 291 290 289 288 288
264 263 264 268 272 274 277 279 281 286 290 293 295 296 297 299 299 299 300 302 303 303 303 305 306 307 307 307 306 303 300 298 295 290 287 285 284 285 283 286 291 294 296 295
267 268 267 269 272 273 275 278 280 285 289 293 294 296 297 298 298 298 299 301 302 304 306 306 306 306 306 306 306 304 301 296 290 283 277 275 276 278 277 282 293 300 303 302
Height
5595 5594 5594 5593 5592 5591 5590 5589 5589 5589 5588 5587 5585 5585 5584 5582 5581 5580 5578 5576 5574 5572 5570 5569 5567 5565 5563 5561 5560 5559 5558 5558 5557 5557 5556 5555 5555 5554 5554 5553 5553 5552 5551 5550
5589 5588 5587 5587 5587 5585 5585 5584 5583 5582 5582 5581 5579 5578 5577 5576 5574 5573 5571 5569 5567 5565 5563 5561 5559 5556 5554 5552 5550 5549 5548 5547 5546 5546 5545 5544 5544 5543 5542 5542 5541 5540 5540 5539
5584 5582 5581 5582 5582 5580 5579 5578 5577 5576 5577 5574 5573 5572 5571 5569 5568 5566 5564 5562 5560 5557 5555 5553 5550 5548 5545 5543 5540 5539 5538 5537 5536 5535 5535 5534 5533 5532 5532 5531 5530 5530 5529 5528
5577 5577 5576 5579 5575 5574 5573 5572 5571 5570 5569 5568 5567 5566 5564 5562 5561 5559 5557 5555 5552 5550 5548 5545 5543 5540 5537 5535 5533 5531 5529 5528 5527 5526 5525 5524 5523 5522 5522 5521 5520 5519 5518 5517
5571 5570 5570 5571 5569 5567 5566 5566 5565 5564 5563 5562 5560 5559 5558 5556 5554 5552 5550 5548 5545 5543 5541 5538 5536 5533 5530 5528 5525 5523 5521 5519 5518 5517 5516 5515 5514 5513 5512 5511 5510 5509 5508 5507
5565 5564 5564 5566 5563 5561 5561 5560 5559 5557 5556 5555 5554 5553 5553 5550 5548 5546 5544 5541 5539 5536 5534 5531 5529 5526 5523 5521 5518 5516 5514 5512 5510 5508 5507 5506 5505 5504 5503 5502 5501 5500 5499 5498
5559 5558 5558 5559 5556 5555 5556 5555 5553 5551 5550 5549 5548 5547 5546 5543 5541 5539 5537 5535 5532 5530 5527 5524 5522 5519 5516 5514 5511 5509 5507 5504 5502 5501 5499 5498 5497 5496 5494 5493 5492 5490 5489 5489
5553 5552 5554 5552 5550 5550 5549 5547 5546 5544 5543 5542 5541 5539 5538 5536 5534 5533 5530 5528 5526 5523 5521 5518 5515 5512 5509 5507 5505 5502 5500 5498 5495 5494 5492 5490 5489 5487 5486 5484 5483 5482 5480 5480
5548 5549 5547 5545 5544 5543 5542 5541 5539 5538 5537 5535 5534 5533 5531 5529 5527 5526 5524 5521 5519 5517 5514 5511 5508 5505 5503 5500 5498 5496 5493 5491 5489 5487 5485 5483 5482 5480 5478 5477 5475 5474 5473 5472
5541 5541 5540 5538 5537 5536 5535 5534 5532 5531 5530 5528 5527 5526 5524 5522 5520 5519 5517 5515 5513 5510 5508 5505 5502 5499 5496 5494 5491 5489 5487 5485 5483 5481 5479 5477 5475 5473 5471 5470 5468 5467 5465 5464
5535 5535 5533 5533 5532 5531 5529 5528 5526 5525 5523 5521 5520 5519 5517 5516 5514 5512 5510 5508 5506 5504 5501 5499 5496 5493 5490 5487 5485 5483 5481 5479 5477 5475 5473 5471 5469 5467 5465 5464 5462 5461 5460 5458
5529 5528 5527 5527 5526 5524 5523 5522 5520 5519 5517 5515 5514 5512 5511 5509 5508 5506 5504 5502 5500 5498 5495 5492 5489 5487 5484 5482 5479 5477 5476 5474 5472 5470 5468 5466 5463 5461 5459 5457 5456 5455 5454 5453
5522 5521 5521 5520 5519 5518 5517 5516 5515 5513 5511 5510 5508 5506 5505 5503 5502 5500 5498 5496 5494 5492 5490 5487 5484 5482 5479 5477 5475 5473 5471 5469 5467 5465 5463 5461 5459 5457 5455 5453 5451 5450 5449 5448
5516 5515 5515 5514 5514 5513 5512 5511 5509 5508 5506 5504 5503 5501 5500 5498 5497 5495 5493 5491 5489 5487 5484 5482 5479 5477 5475 5472 5470 5468 5466 5464 5462 5460 5459 5457 5455 5453 5451 5450 5448 5447 5446 5444
5510 5509 5509 5509 5508 5507 5506 5505 5504 5503 5501 5500 5498 5496 5495 5493 5492 5490 5488 5486 5484 5482 5480 5477 5475 5473 5470 5468 5467 5465 5463 5461 5459 5457 5455 5453 5451 5449 5447 5446 5445 5444 5443 5441
5504 5504 5503 5503 5503 5502 5501 5500 5499 5498 5496 5495 5493 5491 5490 5488 5486 5485 5483 5481 5480 5477 5475 5473 5471 5468 5466 5465 5463 5461 5459 5457 5455 5453 5451 5449 5447 5445 5444 5442 5441 5441 5440 5439
5499 5498 5498 5498 5497 5497 5496 5495 5494 5493 5492 5490 5489 5487 5485 5484 5482 5481 5479 5477 5475 5473 5471 5469 5467 5465 5463 5461 5459 5457 5455 5453 5451 5449 5447 5445 5443 5442 5440 5439 5438 5438 5437 5436
5493 5493 5493 5492 5492 5492 5491 5490 5489 5488 5487 5486 5484 5483 5481 5480 5479 5477 5475 5473 5472 5470 5468 5466 5463 5461 5460 5458 5456 5454 5452 5450 5448 5446 5444 5442 5440 5439 5438 5437 5436 5435 5435 5434
5487 5487 5487 5487 5487 5487 5486 5486 5485 5484 5483 5482 5481 5479 5478 5476 5475 5473 5471 5470 5468 5466 5464 5462 5460 5458 5457 5455 5453 5451 5449 5447 5445 5443 5441 5439 5438 5436 5435 5434 5434 5433 5433 5432
5482 5482 5482 5482 5482 5482 5482 5482 5481 5480 5479 5478 5477 5476 5474 5473 5471 5469 5468 5466 5464 5462 5460 5458 5456 5455 5453 5451 5450 5448 5446 5444 5442 5440 5438 5437 5435 5434 5433 5432 5432 5432 5431 5431
5478 5478 5478 5478 5479 5479 5478 5478 5478 5477 5476 5475 5474 5473 5471 5469 5468 5466 5464 5462 5460 5459 5457 5455 5453 5451 5450 5448 5447 5445 5443 5441 5439 5438 5436 5435 5434 5433 5432 5431 5430 5430 5430 5429
5474 5474 5474 5475 5475 5475 5475 5474 5474 5473 5472 5471 5470 5469 5468 5466 5464 5462 5460 5459 5457 5455 5453 5452 5450 5448 5446 5445 5443 5442 5440 5438 5437 5435 5434 5433 5432 5431 5430 5429 5428 5428 5428 5427
5471 5471 5471 5471 5471 5471 5471 5471 5470 5470 5469 5468 5467 5466 5464 5462 5461 5459 5457 5455 5453 5452 5450 5448 5447 5445 5443 5442 5440 5439 5437 5435 5434 5433 5431 5430 5429 5428 5428 5427 5426 5426 5426 5425
5467 5468 5468 5468 5468 5468 5467 5467 5467 5466 5465 5465 5463 5462 5461 5459 5457 5455 5453 5452 5450 5448 5446 5445 5443 5441 5440 5438 5437 5435 5434 5432 5431 5430 5429 5428 5427 5426 5425 5425 5424 5424 5423 5423
5464 5464 5464 5464 5464 5464 5464 5463 5463 5462 5462 5461 5460 5458 5457 5455 5453 5452 5450 5448 5446 5444 5443 5441 5440 5438 5436 5435 5433 5432 5430 5429 5428 5427 5426 5425 5424 5423 5423 5422 5422 5422 5421 5421
5460 5460 5460 5461 5461 5460 5460 5460 5459 5459 5458 5457 5456 5454 5453 5451 5449 5447 5446 5444 5442 5441 5439 5438 5436 5434 5433 5431 5429 5428 5427 5426 5425 5424 5423 5422 5422 5421 5421 5421 5420 5420 5419 5419
5456 5456 5457 5457 5457 5456 5456 5456 5455 5455 5454 5453 5452 5450 5448 5447 5445 5443 5442 5440 5439 5437 5435 5434 5432 5431 5429 5428 5426 5425 5424 5423 5422 5421 5420 5420 5420 5419 5419 5419 5419 5418 5418 5417